Tracking 30995 objects as of 5-Jul-2025
HD Live streaming from Space Station
objects crossing your sky now

OPS 7323 (DMSP 5B F3)

Track OPS 7323 (DMSP 5B F3) now!
10-day predictions
OPS 7323 (DMSP 5B F3) is classified as:


NORAD ID: 6275
Int'l Code: 1972-089A
Perigee: 776.0 km
Apogee: 824.2 km
Inclination: 98.5 °
Period: 100.7 minutes
Semi major axis: 7171 km
RCS: 1.5352 m2 (large)
Launch date: November 9, 1972
Source: United States (US)
Launch site: AIR FORCE WESTERN TEST RANGE (AFWTR)
Your satellite tracking list
Your tracking list is empty




NASA's NSSDC Master Catalog

Two Line Element Set (TLE):
1 06275U 72089A   25185.92749313  .00000239  00000-0  10968-3 0  9996
2 06275  98.4997 355.2653 0033602 262.9504  96.7857 14.29634085735053
Source of the keplerian elements: AFSPC